| time (UTC) | temp F | wind direction | speed knots | gust knots | rain 1hr in | rain 24hr in | rain mn in | humidity % | barometer mb |
| 20260507014515 | 48 | 234 | 0.0 | 1.7 | 0.00 | 0.00 | 0.00 | 49 | 1012.7 |
| 20260507013021 | 48 | 246 | 0.0 | 3.5 | 0.00 | 0.00 | 0.00 | 49 | 1012.6 |
| 20260507011520 | 48 | 257 | 0.0 | 2.6 | 0.00 | 0.00 | 0.00 | 49 | 1012.4 |
| 20260507010022 | 49 | 252 | 0.9 | 2.6 | 0.00 | 0.00 | 0.00 | 48 | 1012.5 |
| 20260507004533 | 49 | 213 | 0.0 | 0.9 | 0.00 | 0.00 | 0.00 | 50 | 1012.5 |
| 20260507003012 | 49 | 219 | 0.0 | 2.6 | 0.00 | 0.00 | 0.00 | 50 | 1012.3 |
| 20260507001524 | 50 | 239 | 0.9 | 3.5 | 0.00 | 0.00 | 0.00 | 49 | 1012.2 |
| 20260507000026 | 50 | 309 | 0.0 | 2.6 | 0.00 | 0.00 | 0.00 | 52 | 1012.2 |
| 20260506234534 | 50 | 246 | 0.0 | 2.6 | 0.00 | 0.00 | 0.00 | 50 | 1012.2 |
| 20260506233026 | 51 | 231 | 0.0 | 2.6 | 0.00 | 0.00 | 0.00 | 51 | 1012.1 |
| 20260506231529 | 51 | 286 | 0.9 | 2.6 | 0.00 | 0.00 | 0.00 | 48 | 1012.0 |
| 20260506224527 | 52 | 340 | 0.9 | 2.6 | 0.00 | 0.00 | 0.00 | 48 | 1011.9 |
| 20260506223040 | 52 | 355 | 0.9 | 4.3 | 0.00 | 0.00 | 0.00 | 49 | 1012.0 |
| 20260506221527 | 52 | 257 | 0.0 | 2.6 | 0.00 | 0.00 | 0.00 | 47 | 1012.1 |
| 20260506220016 | 52 | 272 | 0.9 | 2.6 | 0.00 | 0.00 | 0.00 | 46 | 1012.2 |
| 20260506214520 | 52 | 269 | 0.9 | 6.1 | 0.00 | 0.00 | 0.00 | 50 | 1012.1 |
| 20260506213026 | 53 | 319 | 0.9 | 3.5 | 0.00 | 0.00 | 0.00 | 47 | 1012.0 |
| 20260506211532 | 52 | 251 | 1.7 | 7.0 | 0.00 | 0.00 | 0.00 | 47 | 1012.0 |
| 20260506210030 | 52 | 244 | 2.6 | 9.6 | 0.00 | 0.00 | 0.00 | 47 | 1012.0 |
| 20260506204517 | 53 | 229 | 2.6 | 7.0 | 0.00 | 0.00 | 0.00 | 47 | 1012.0 |
| 20260506203028 | 53 | 341 | 1.7 | 3.5 | 0.00 | 0.00 | 0.00 | 44 | 1012.0 |
| 20260506201534 | 52 | 337 | 1.7 | 5.2 | 0.00 | 0.00 | 0.00 | 48 | 1012.0 |
| 20260506200028 | 51 | 302 | 0.0 | 7.0 | 0.00 | 0.00 | 0.00 | 48 | 1012.2 |
| 20260506194529 | 52 | 77 | 1.7 | 4.3 | 0.00 | 0.00 | 0.00 | 47 | 1012.2 |
| 20260506193020 | 52 | 227 | 0.9 | 7.0 | 0.00 | 0.00 | 0.00 | 50 | 1012.3 |
| 20260506191524 | 51 | 352 | 2.6 | 7.0 | 0.00 | 0.00 | 0.00 | 47 | 1012.5 |
| 20260506190025 | 51 | 290 | 0.9 | 7.0 | 0.00 | 0.00 | 0.00 | 51 | 1012.7 |
| 20260506184525 | 51 | 290 | 0.9 | 8.7 | 0.00 | 0.00 | 0.00 | 52 | 1012.4 |
| 20260506183036 | 51 | 344 | 5.2 | 9.6 | 0.00 | 0.00 | 0.00 | 47 | 1012.3 |
| 20260506181522 | 51 | 343 | 1.7 | 7.8 | 0.00 | 0.00 | 0.00 | 48 | 1012.3 |
| 20260506180027 | 51 | 311 | 2.6 | 7.0 | 0.00 | 0.00 | 0.00 | 48 | 1012.3 |
| 20260506174525 | 51 | 259 | 0.9 | 10.4 | 0.00 | 0.00 | 0.00 | 54 | 1012.3 |
| 20260506173028 | 50 | 293 | 0.9 | 7.0 | 0.00 | 0.00 | 0.00 | 53 | 1012.9 |
| 20260506171530 | 49 | 9 | 2.6 | 8.7 | 0.00 | 0.00 | 0.00 | 51 | 1013.0 |
| 20260506170005 | 50 | 257 | 1.7 | 7.0 | 0.00 | 0.00 | 0.00 | 53 | 1012.7 |
| 20260506164508 | 50 | 273 | 0.9 | 7.8 | 0.00 | 0.00 | 0.00 | 55 | 1012.8 |
| 20260506163014 | 49 | 314 | 2.6 | 13.0 | 0.00 | 0.00 | 0.00 | 54 | 1012.7 |
| 20260506160004 | 50 | 274 | 1.7 | 7.8 | 0.00 | 0.03 | 0.00 | 56 | 1012.7 |
| 20260506154506 | 50 | 267 | 1.7 | 7.0 | 0.00 | 0.04 | 0.00 | 54 | 1012.5 |
| 20260506153012 | 51 | 317 | 3.5 | 10.4 | 0.00 | 0.05 | 0.00 | 52 | 1012.2 |
| 20260506151518 | 51 | 325 | 3.5 | 10.4 | 0.00 | 0.05 | 0.00 | 52 | 1012.2 |
| 20260506144505 | 49 | 41 | 1.7 | 11.3 | 0.00 | 0.05 | 0.00 | 55 | 1012.1 |
| 20260506143020 | 49 | 332 | 0.9 | 7.8 | 0.00 | 0.05 | 0.00 | 59 | 1011.9 |
| 20260506141514 | 49 | 343 | 2.6 | 8.7 | 0.00 | 0.05 | 0.00 | 60 | 1011.7 |
| 20260506131511 | 48 | 348 | 2.6 | 9.6 | 0.00 | 0.05 | 0.00 | 57 | 1011.3 |
| 20260506124518 | 46 | 326 | 0.9 | 4.3 | 0.00 | 0.05 | 0.00 | 60 | 1010.9 |
| 20260506123029 | 46 | 340 | 2.6 | 5.2 | 0.00 | 0.05 | 0.00 | 60 | 1010.7 |
| 20260506113028 | 41 | 286 | 0.0 | 2.6 | 0.00 | 0.05 | 0.00 | 70 | 1010.0 |
| 20260506111523 | 40 | 286 | 0.0 | 1.7 | 0.00 | 0.05 | 0.00 | 70 | 1009.9 |
| 20260506110011 | 41 | 316 | 0.0 | 0.0 | 0.00 | 0.05 | 0.00 | 69 | 1009.7 |
| 20260506103022 | 43 | 290 | 0.0 | 2.6 | 0.00 | 0.05 | 0.00 | 65 | 1009.2 |
| 20260506101522 | 43 | 344 | 0.0 | 2.6 | 0.00 | 0.05 | 0.00 | 63 | 1009.3 |
| 20260506100028 | 44 | 309 | 0.0 | 2.6 | 0.00 | 0.05 | 0.00 | 65 | 1009.3 |
| 20260506094519 | 44 | 299 | 0.0 | 1.7 | 0.00 | 0.05 | 0.00 | 64 | 1009.0 |
| 20260506093019 | 44 | 331 | 0.0 | 4.3 | 0.00 | 0.05 | 0.00 | 62 | 1008.8 |
| 20260506090040 | 45 | 315 | 0.0 | 2.6 | 0.00 | 0.05 | 0.00 | 64 | 1008.9 |
| 20260506084525 | 45 | 328 | 0.9 | 4.3 | 0.00 | 0.05 | 0.00 | 62 | 1008.4 |
| 20260506083015 | 45 | 333 | 0.9 | 5.2 | 0.00 | 0.05 | 0.00 | 62 | 1008.6 |
| 20260506044524 | 47 | 295 | 0.0 | 3.5 | 0.00 | 0.05 | 0.00 | 62 | 1008.7 |
| 20260506034518 | 47 | 280 | 0.0 | 3.5 | 0.00 | 0.10 | 0.10 | 60 | 1008.3 |
| 20260506033022 | 47 | 225 | 0.0 | 2.6 | 0.00 | 0.10 | 0.10 | 60 | 1008.3 |
| 20260506031529 | 47 | 284 | 0.0 | 1.7 | 0.00 | 0.10 | 0.10 | 58 | 1008.5 |
| 20260506030015 | 48 | 240 | 0.0 | 2.6 | 0.00 | 0.10 | 0.10 | 58 | 1008.5 |
| 20260506024533 | 48 | 257 | 0.0 | 2.6 | 0.00 | 0.10 | 0.10 | 57 | 1008.4 |
| 20260506023022 | 48 | 284 | 0.0 | 2.6 | 0.00 | 0.10 | 0.10 | 56 | 1008.4 |
| 20260506021524 | 48 | 255 | 0.0 | 2.6 | 0.00 | 0.10 | 0.10 | 55 | 1008.3 |
| 20260506020024 | 48 | 204 | 0.0 | 1.7 | 0.00 | 0.10 | 0.10 | 56 | 1008.3 |